This is the latest recevied weather packets stored in our database for station/object DM3DP. If no packets are shown the sender has not sent any weather packets the latest 10 day(s).
| Time | Temp. | Humidity | Pressure | Rain* | Wind** | Luminosity | Snow |
|---|---|---|---|---|---|---|---|
| 1777797056 | 20° C | 54% | 1010.6 hPa | 0 mm | - | 838 W/m² | - |
| 1777796727 | 20° C | 54% | 1010.7 hPa | 0 mm | - | 570 W/m² | - |
| 1777796397 | 20° C | 54% | 1010.7 hPa | 0 mm | - | 796 W/m² | - |
| 1777796066 | 19.44° C | 54% | 1010.7 hPa | 0 mm | - | 767 W/m² | - |
| 1777795737 | 18.89° C | 60% | 1010.7 hPa | 0 mm | - | 875 W/m² | - |
| 1777795406 | 18.33° C | 60% | 1010.7 hPa | 0 mm | - | 721 W/m² | - |
| 1777795077 | 18.33° C | 60% | 1010.7 hPa | 0 mm | - | 400 W/m² | - |
| 1777794746 | 18.89° C | 61% | 1010.7 hPa | 0 mm | - | 230 W/m² | - |
| 1777794417 | 18.33° C | 63% | 1010.6 hPa | 0 mm | - | 411 W/m² | - |
| 1777794087 | 18.33° C | 63% | 1010.6 hPa | 0 mm | - | 488 W/m² | - |
| 1777793756 | 18.33° C | 63% | 1010.6 hPa | 0 mm | - | 364 W/m² | - |
| 1777793427 | 18.33° C | 64% | 1010.6 hPa | 0 mm | - | 332 W/m² | - |
| 1777793096 | 18.33° C | 64% | 1010.6 hPa | 0 mm | - | 330 W/m² | - |
| 1777792766 | 18.33° C | 67% | 1010.6 hPa | 0 mm | - | 214 W/m² | - |
| 1777792436 | 17.22° C | 68% | 1010.6 hPa | 0 mm | - | 283 W/m² | - |
| 1777792107 | 17.22° C | 68% | 1010.7 hPa | 0 mm | - | 638 W/m² | - |
| 1777791776 | 17.78° C | 70% | 1010.7 hPa | 0 mm | - | 240 W/m² | - |
| 1777791446 | 17.78° C | 70% | 1010.7 hPa | 0 mm | - | 155 W/m² | - |
| 1777791116 | 17.78° C | 70% | 1010.6 hPa | 0 mm | - | 260 W/m² | - |
| 1777790787 | 17.78° C | 70% | 1010.6 hPa | 0 mm | - | 288 W/m² | - |
| 1777790456 | 17.78° C | 74% | 1010.6 hPa | 0 mm | - | 411 W/m² | - |
| 1777790126 | 16.67° C | 76% | 1010.6 hPa | 0 mm | - | 536 W/m² | - |
| 1777789796 | 16.67° C | 78% | 1010.5 hPa | 0 mm | - | 415 W/m² | - |
| 1777789466 | 15.56° C | 86% | 1010.5 hPa | 0 mm | - | 443 W/m² | - |
| 1777789137 | 15.56° C | 86% | 1010.5 hPa | 0 mm | - | 410 W/m² | - |
* Rain latest hour (hover to see other rain measurements)
** Current wind speed in m/s (hover to see current wind gust speed)